Simultaneous Nadir Overpasses (SNOs) Predictions

Prediction of SNOs between METOP-A and NPP Satellite Orbit:

Table of predicted SNOs for the next 14.0 days since TLE Epoch: 10/24/2020
Index Date (METOP-A) Time (METOP-A) Lat,Lon (METOP-A) SZA (METOP-A ) Date (NPP) Time (NPP) Lat,Lon (NPP) SZA (NPP ) Distance(km) Time Diff (sec)
1 10/25/2020 17:35:23 76.36, -98.64 88.95 10/25/2020 17:34:15 76.38,-101.27 89.11 68.74 68
2 10/25/2020 18:26:07 -76.24, 68.29 91.14 10/25/2020 18:24:56 -76.23, 66.56 91.05 45.74 71
3 10/25/2020 19:16:51 76.06,-124.99 88.73 10/25/2020 19:15:38 76.06,-125.54 88.77 14.65 73
4 10/25/2020 20:07:34 -75.99, 42.11 91.32 10/25/2020 20:06:20 -75.97, 42.11 91.33 2.79 74
5 10/25/2020 20:58:14 75.99,-150.55 88.70 10/25/2020 20:57:06 75.98,-150.62 88.70 2.71 68
6 10/25/2020 21:48:56 -75.97, 16.71 91.31 10/25/2020 21:47:50 -75.97, 16.71 91.30 0.04 66
7 10/25/2020 22:39:36 75.98,-175.95 88.71 10/25/2020 22:38:36 75.98,-176.02 88.73 2.06 60
8 10/25/2020 23:30:17 -75.96, -8.69 91.31 10/25/2020 23:29:19 -75.98, -8.68 91.27 2.72 58
9 10/26/2020 00:20:57 75.96, 158.65 88.71 10/26/2020 00:20:04 75.94, 158.74 88.71 2.89 53
10 10/26/2020 01:11:38 -75.98, -33.94 91.26 10/26/2020 01:10:49 -75.99, -34.08 91.24 3.73 49
11 10/26/2020 02:02:19 75.94, 133.25 88.72 10/26/2020 02:01:34 75.95, 133.35 88.74 3.02 45
12 10/26/2020 02:53:00 -75.96, -59.34 91.25 10/26/2020 02:52:18 -75.95, -59.32 91.26 2.17 42
13 10/26/2020 03:43:40 75.97, 108.00 88.77 10/26/2020 03:43:04 75.96, 107.95 88.77 1.64 36
14 10/26/2020 04:34:22 -75.95, -84.74 91.24 10/26/2020 04:33:48 -75.95, -84.71 91.23 1.02 34
15 10/26/2020 05:25:02 75.95, 82.60 88.78 10/26/2020 05:24:34 75.96, 82.56 88.80 2.01 28
16 10/26/2020 06:15:44 -75.93,-110.14 91.23 10/26/2020 06:15:18 -75.96,-110.11 91.20 3.55 26
17 10/26/2020 07:06:24 75.93, 57.20 88.79 10/26/2020 07:06:03 75.92, 57.32 88.78 3.34 21
18 10/26/2020 07:57:05 -75.96,-135.39 91.19 10/26/2020 07:56:48 -75.96,-135.50 91.17 3.14 17
19 10/26/2020 08:47:45 75.96, 31.95 88.83 10/26/2020 08:47:33 75.93, 31.92 88.81 3.17 12
20 10/26/2020 09:38:27 -75.94,-160.80 91.18 10/26/2020 09:38:17 -75.92,-160.75 91.19 1.92 10
21 10/26/2020 10:29:07 75.94, 6.54 88.84 10/26/2020 10:29:03 75.94, 6.53 88.84 0.58 4
22 10/26/2020 11:19:49 -75.92, 173.80 91.17 10/26/2020 11:19:47 -75.93, 173.86 91.16 2.05 2
23 10/26/2020 12:10:29 75.92, -18.86 88.85 10/26/2020 12:10:33 75.94, -18.87 88.87 2.48 4
24 10/26/2020 13:01:10 -75.95, 148.55 91.12 10/26/2020 13:01:17 -75.94, 148.46 91.13 2.62 7
25 10/26/2020 13:51:51 75.90, -44.26 88.86 10/26/2020 13:52:02 75.90, -44.11 88.85 4.02 11
26 10/26/2020 14:42:32 -75.93, 123.15 91.11 10/26/2020 14:42:47 -75.94, 123.07 91.10 2.82 15
27 10/26/2020 15:33:12 75.93, -69.51 88.91 10/26/2020 15:33:32 75.91, -69.51 88.88 2.35 20
28 10/26/2020 16:23:54 -75.91, 97.75 91.10 10/26/2020 16:24:16 -75.90, 97.83 91.12 2.17 22
29 10/26/2020 17:14:34 75.91, -94.91 88.91 10/26/2020 17:15:02 75.92, -94.90 88.91 0.51 28
30 10/26/2020 18:05:16 -75.89, 72.35 91.10 10/26/2020 18:05:46 -75.91, 72.43 91.09 3.07 30
31 10/26/2020 18:55:56 75.89,-120.31 88.92 10/26/2020 18:56:32 75.92,-120.30 88.94 3.25 36
32 10/26/2020 19:46:37 -75.92, 47.10 91.05 10/26/2020 19:47:16 -75.92, 47.04 91.06 1.71 39
33 10/26/2020 20:37:17 75.92,-145.56 88.97 10/26/2020 20:38:02 75.93,-145.69 88.97 3.58 45
34 10/26/2020 21:27:59 -75.90, 21.70 91.04 10/26/2020 21:28:46 -75.92, 21.64 91.03 2.87 47
35 10/26/2020 22:18:39 75.90,-170.97 88.98 10/26/2020 22:19:31 75.89,-170.93 88.95 1.79 52
36 10/26/2020 23:09:21 -75.88, -3.70 91.03 10/26/2020 23:10:15 -75.88, -3.60 91.05 2.78 54
37 10/27/2020 00:00:01 75.88, 163.63 88.99 10/27/2020 00:01:01 75.89, 163.67 88.98 1.56 60
38 10/27/2020 00:50:42 -75.91, -28.95 90.99 10/27/2020 00:51:45 -75.89, -29.00 91.02 2.62 63
39 10/27/2020 01:41:22 75.91, 138.38 89.03 10/27/2020 01:42:31 75.90, 138.27 89.01 3.17 69
40 10/27/2020 02:32:04 -75.89, -54.36 90.98 10/27/2020 02:33:15 -75.90, -54.39 90.99 1.05 71
41 10/27/2020 03:22:46 75.80, 112.68 88.96 10/27/2020 03:23:59 75.81, 113.18 88.94 13.81 73
42 10/27/2020 04:13:30 -75.68, -80.35 91.12 10/27/2020 04:14:42 -75.76, -79.33 91.11 29.15 72
43 10/27/2020 05:04:15 75.45, 86.27 88.70 10/27/2020 05:05:22 75.49, 88.83 88.60 71.71 67
44 10/27/2020 05:54:59 -75.33,-106.74 91.39 10/27/2020 05:56:04 -75.40,-103.55 91.51 89.85 65
